Temp
17 17 17 18 18 19 19 19 19 19 19 19 19 19 18 18 18 18 17 17 17 17 17 17 17 17 17 16 16 16 16 16 16 16 16 15 15 15 16 16 16 16 16
17 16 17 17 18 18 19 19 19 19 19 19 19 18 18 18 18 18 17 17 17 17 17 17 16 17 16 16 16 16 15 16 16 16 16 16 15 15 15 15 15 16 16
16 17 16 17 17 17 18 18 19 19 19 19 18 18 18 18 18 18 17 17 17 17 16 16 16 16 16 16 16 16 16 16 16 16 16 16 15 15 15 15 15 15 15
16 16 16 17 17 17 17 18 18 18 19 18 18 18 18 18 17 17 17 17 17 16 16 16 16 15 16 16 16 16 16 15 16 16 16 16 15 15 15 15 15 15 15
16 16 16 16 17 17 17 17 18 18 18 18 18 18 17 17 17 17 17 16 16 16 16 16 16 16 16 16 16 16 16 16 16 15 15 15 15 15 15 15 14 14 14
15 15 16 16 16 16 17 17 17 17 17 18 18 17 17 17 17 16 16 16 16 16 16 16 16 16 16 16 16 16 16 16 16 16 15 15 15 15 15 14 13 14 14
14 15 15 15 15 15 16 16 17 17 17 17 17 16 16 16 16 16 16 16 16 16 16 16 16 17 16 16 16 16 16 16 16 16 16 15 14 15 15 14 13 13 13
14 14 14 14 13 13 14 15 15 15 16 16 16 16 16 15 15 16 17 17 16 17 16 16 16 16 16 16 16 15 15 16 16 16 16 16 15 14 14 14 13 13 13
14 14 15 14 13 13 14 14 15 16 15 15 15 15 15 15 15 15 16 17 17 18 17 16 16 16 16 16 15 15 15 15 15 15 15 15 14 14 13 13 13 13 13
14 15 15 14 13 13 12 13 15 15 15 15 15 15 14 14 14 15 15 16 18 17 16 16 15 15 15 15 15 14 14 14 14 14 14 14 13 13 13 13 12 12 12
14 14 14 13 13 13 13 13 13 14 14 14 14 14 14 14 15 15 14 15 16 16 15 15 15 15 15 15 15 14 14 13 13 13 13 12 13 13 13 12 12 12 12
14 14 13 13 13 13 13 13 13 13 13 13 13 13 14 14 14 14 13 14 15 15 15 15 15 15 15 14 14 13 13 13 13 12 12 12 11 11 11 12 12 12 12
14 14 13 13 12 13 13 13 13 13 14 14 13 13 13 13 13 13 13 14 14 14 14 15 15 15 14 14 13 13 13 12 12 12 11 10 9 7 7 8 8 8 8
14 14 14 13 12 12 12 12 12 12 13 13 13 12 12 13 13 13 13 13 14 13 14 14 14 14 13 13 12 12 12 12 11 11 10 8 7 7 7 7 7 7 6
13 14 14 14 13 12 11 12 12 12 11 11 12 11 12 12 12 12 12 13 13 13 13 13 13 13 12 12 12 12 11 11 10 9 8 7 7 6 5 5 6 6 5
13 14 14 13 12 11 11 11 10 10 11 10 11 11 11 11 11 12 12 12 12 13 12 13 12 12 12 11 11 10 10 9 8 8 7 7 6 6 6 5 5 5 4
13 13 13 12 11 11 11 10 10 10 10 10 10 10 11 11 11 11 11 12 12 12 12 12 12 11 11 10 10 9 8 7 7 6 6 6 6 5 5 4 4 3 3
13 13 13 13 12 10 10 10 9 9 9 10 10 10 10 10 10 11 11 11 11 12 12 12 11 10 10 9 9 8 7 6 6 6 5 5 5 5 4 4 3 3 3
12 12 12 12 12 11 10 9 8 8 9 9 10 10 10 10 10 10 10 11 11 11 11 10 10 9 9 8 7 6 5 5 5 5 5 5 5 4 4 3 3 3 3
12 11 11 10 10 9 9 9 9 8 9 9 10 9 9 9 9 10 10 10 10 10 10 10 9 9 8 8 6 5 4 4 4 4 4 3 3 3 3 2 3 3 2
12 11 10 10 10 10 9 9 9 9 9 9 9 9 9 9 9 9 9 9 10 10 10 10 9 8 7 6 6 4 3 3 3 3 3 2 2 2 2 2 2 2 2
12 11 10 10 9 9 9 9 10 10 9 8 8 8 8 8 9 9 9 9 9 9 9 9 8 8 7 6 5 5 2 2 2 1 1 1 1 1 1 1 1 1 1
11 11 10 10 9 9 9 9 8 7 8 8 7 7 8 8 8 8 8 8 8 9 8 8 7 7 7 6 5 5 3 2 1 -1 -1 -0 -0 1 1 1 1 0 0
11 10 9 9 9 8 9 9 9 9 9 8 7 7 8 8 7 8 8 8 8 8 7 7 7 7 6 6 6 5 5 5 2 -1 -2 -2 -3 -2 -2 -1 -1 -0 -1
10 9 9 9 9 9 9 8 8 8 8 7 7 7 7 7 7 7 7 7 7 6 6 6 6 6 7 6 6 6 5 4 4 3 -1 -3 -3 -4 -4 -2 -2 -1 -2
8 9 8 8 7 7 7 8 7 7 7 7 7 7 7 7 7 6 6 6 6 6 5 6 6 6 6 6 5 5 5 4 4 4 1 -2 -3 -4 -4 -2 -1 -2 -3
Height
1487 1491 1494 1496 1499 1500 1501 1503 1505 1507 1508 1510 1512 1513 1514 1516 1518 1520 1521 1522 1523 1524 1524 1525 1525 1525 1526 1526 1527 1527 1527 1526 1525 1525 1525 1525 1525 1525 1525 1525 1525 1524 1524
1487 1491 1494 1496 1498 1500 1502 1502 1505 1506 1507 1509 1512 1513 1515 1516 1518 1519 1521 1522 1523 1523 1524 1524 1525 1525 1525 1526 1526 1526 1526 1525 1524 1524 1525 1525 1525 1525 1525 1525 1525 1525 1525
1487 1491 1495 1497 1498 1500 1502 1503 1504 1506 1507 1509 1511 1514 1516 1517 1518 1519 1521 1522 1523 1523 1524 1524 1524 1524 1525 1525 1525 1525 1525 1524 1523 1523 1524 1525 1525 1524 1525 1525 1526 1526 1526
1487 1491 1495 1497 1499 1501 1503 1504 1505 1506 1507 1509 1511 1513 1515 1517 1518 1520 1520 1521 1522 1523 1523 1523 1523 1524 1523 1524 1524 1524 1524 1524 1523 1522 1522 1523 1524 1524 1525 1525 1526 1527 1526
1487 1491 1495 1498 1499 1501 1503 1505 1506 1507 1508 1509 1510 1512 1515 1516 1518 1519 1520 1521 1521 1522 1522 1522 1523 1522 1522 1522 1522 1522 1522 1523 1522 1522 1522 1523 1523 1523 1524 1526 1527 1527 1527
1488 1490 1494 1497 1499 1500 1502 1505 1506 1507 1508 1509 1510 1512 1514 1516 1517 1518 1519 1520 1520 1521 1521 1521 1521 1521 1521 1522 1521 1521 1521 1521 1521 1521 1521 1521 1522 1522 1524 1524 1526 1526 1525
1489 1492 1493 1495 1495 1500 1501 1503 1506 1507 1508 1509 1510 1512 1513 1515 1517 1517 1517 1518 1519 1520 1520 1520 1520 1520 1520 1520 1520 1520 1520 1520 1520 1520 1520 1520 1521 1521 1523 1524 1524 1523 1524
1488 1491 1493 1496 1495 1498 1499 1501 1504 1505 1506 1508 1510 1510 1511 1513 1515 1517 1518 1517 1518 1519 1519 1520 1519 1519 1519 1520 1520 1519 1519 1519 1519 1519 1519 1519 1520 1521 1522 1522 1522 1523 1523
1486 1489 1490 1493 1495 1498 1497 1500 1503 1505 1506 1508 1509 1509 1510 1511 1512 1513 1515 1517 1516 1516 1520 1519 1519 1518 1518 1518 1519 1518 1518 1518 1518 1518 1518 1518 1519 1519 1520 1521 1522 1522 1522
1484 1485 1488 1491 1495 1496 1498 1500 1502 1504 1506 1507 1509 1509 1510 1511 1512 1512 1513 1514 1514 1515 1519 1518 1517 1518 1518 1517 1517 1517 1517 1517 1517 1517 1517 1517 1517 1518 1519 1519 1519 1520 1520
1484 1484 1485 1488 1491 1494 1496 1499 1500 1502 1504 1505 1507 1508 1509 1509 1509 1511 1511 1513 1513 1515 1517 1517 1517 1517 1516 1516 1516 1516 1517 1516 1515 1516 1516 1516 1517 1517 1516 1517 1517 1517 1517
1480 1484 1485 1485 1487 1491 1494 1496 1497 1500 1502 1504 1505 1507 1507 1508 1509 1511 1513 1513 1513 1514 1515 1515 1515 1515 1515 1515 1516 1516 1515 1515 1514 1514 1515 1515 1515 1515 1515 1515 1514 1513 1514
1477 1480 1483 1486 1487 1489 1491 1494 1496 1498 1499 1502 1504 1505 1507 1508 1508 1510 1512 1513 1512 1513 1514 1514 1514 1515 1515 1515 1515 1515 1515 1514 1513 1514 1513 1513 1513 1514 1514 1514 1513 1511 1510
1470 1475 1480 1483 1487 1488 1490 1491 1493 1495 1496 1499 1501 1502 1503 1506 1507 1510 1511 1512 1512 1512 1513 1514 1514 1514 1515 1515 1514 1514 1514 1513 1512 1513 1512 1513 1512 1513 1513 1513 1512 1511 1509
1472 1473 1475 1479 1482 1485 1488 1490 1492 1493 1496 1497 1499 1501 1502 1504 1506 1508 1510 1510 1511 1512 1512 1513 1513 1514 1514 1514 1514 1515 1514 1512 1512 1512 1511 1511 1511 1511 1512 1512 1512 1510 1508
1467 1472 1476 1477 1479 1482 1485 1489 1491 1493 1494 1496 1497 1499 1501 1503 1505 1506 1508 1509 1510 1511 1512 1512 1513 1514 1514 1514 1515 1514 1514 1513 1512 1512 1511 1511 1510 1510 1510 1509 1508 1508 1507
1464 1468 1473 1476 1478 1479 1481 1485 1489 1492 1493 1494 1496 1498 1499 1502 1504 1505 1507 1508 1509 1510 1511 1512 1512 1513 1513 1513 1514 1514 1514 1513 1512 1512 1511 1510 1510 1509 1508 1508 1506 1505 1504
1460 1466 1470 1470 1474 1479 1481 1484 1487 1490 1492 1493 1495 1497 1498 1500 1503 1504 1505 1507 1508 1509 1510 1510 1511 1512 1512 1512 1512 1512 1513 1513 1512 1512 1511 1510 1510 1508 1507 1506 1505 1504 1503
1457 1458 1460 1465 1469 1472 1477 1483 1486 1489 1490 1491 1492 1493 1495 1498 1501 1502 1504 1506 1507 1509 1510 1510 1511 1511 1511 1511 1512 1512 1513 1513 1512 1511 1510 1510 1509 1508 1507 1505 1504 1504 1503
1455 1458 1458 1461 1464 1470 1474 1477 1482 1486 1489 1489 1490 1492 1493 1496 1498 1501 1503 1505 1506 1508 1508 1509 1509 1509 1509 1510 1511 1512 1512 1513 1513 1511 1510 1509 1508 1508 1506 1505 1504 1503 1502
1451 1452 1453 1455 1458 1462 1466 1472 1476 1480 1485 1487 1488 1490 1491 1493 1496 1499 1502 1504 1505 1506 1507 1507 1507 1508 1508 1509 1508 1510 1512 1514 1513 1511 1510 1510 1509 1507 1506 1505 1504 1502 1501
1441 1444 1447 1452 1455 1457 1463 1468 1472 1475 1480 1484 1486 1488 1490 1492 1495 1497 1500 1502 1503 1504 1505 1506 1506 1506 1506 1506 1507 1509 1512 1514 1512 1511 1511 1510 1508 1507 1506 1504 1503 1502 1500
1436 1438 1443 1446 1452 1457 1458 1464 1468 1473 1474 1477 1481 1485 1488 1491 1494 1496 1498 1499 1501 1502 1503 1505 1506 1505 1505 1505 1506 1508 1508 1509 1511 1511 1511 1510 1509 1509 1507 1505 1503 1501 1500
1428 1435 1441 1444 1448 1452 1456 1458 1462 1465 1468 1474 1479 1483 1486 1489 1492 1493 1496 1497 1499 1501 1502 1503 1503 1504 1504 1504 1504 1505 1506 1506 1506 1510 1511 1510 1510 1509 1508 1507 1505 1502 1500
1419 1428 1437 1441 1444 1447 1450 1454 1458 1463 1468 1472 1476 1480 1484 1487 1489 1492 1494 1495 1497 1498 1500 1500 1501 1502 1502 1503 1503 1503 1503 1503 1504 1504 1506 1509 1510 1510 1509 1508 1506 1503 1501
1418 1428 1435 1441 1443 1447 1449 1450 1457 1460 1464 1467 1472 1476 1481 1485 1487 1489 1492 1493 1495 1496 1498 1498 1499 1500 1501 1501 1501 1501 1501 1501 1501 1501 1503 1508 1511 1511 1509 1507 1506 1504 1502
Wind_Speed
21 23 22 22 20 21 23 23 22 21 20 18 16 14 13 12 11 9 8 8 8 7 6 5 4 4 3 3 3 3 4 4 3 3 3 4 5 4 4 5 5 6 6
21 24 23 22 21 21 21 22 22 21 20 19 18 16 15 13 12 11 11 10 8 7 6 4 3 2 2 2 3 3 4 5 4 3 2 1 2 5 1 4 5 6 7
23 23 22 23 21 20 20 21 21 21 21 20 19 18 16 15 15 14 12 10 8 6 4 3 1 1 1 1 1 3 4 3 3 2 1 1 1 3 3 1 4 5 6
24 23 23 22 21 20 19 19 20 20 20 20 20 19 18 16 14 11 9 7 5 4 3 2 1 1 2 2 2 3 4 4 3 4 3 3 4 4 2 2 2 4 4
23 23 22 22 21 20 19 19 20 21 20 20 19 17 15 13 12 10 8 7 5 4 3 2 2 2 2 3 3 3 4 4 3 5 6 4 6 4 2 4 2 3 5
21 22 21 21 21 22 22 21 20 20 19 18 16 14 13 11 10 9 8 6 5 4 3 3 2 2 3 4 5 5 5 5 4 6 9 6 5 8 4 4 5 6 4
23 20 21 22 23 22 22 21 19 18 16 14 13 12 11 10 10 10 9 7 5 5 3 3 2 3 5 6 7 7 7 6 6 6 8 7 5 8 7 5 8 6 7
22 22 20 19 19 22 21 20 19 18 17 16 14 14 14 13 11 9 8 7 6 5 4 4 3 5 6 7 8 8 7 7 7 6 8 7 6 7 8 7 7 8 9
22 20 17 21 24 20 21 21 21 19 16 15 16 16 15 15 15 12 10 9 8 7 8 5 5 6 7 8 9 8 7 6 6 5 6 7 6 7 9 7 9 8 10
22 20 16 19 21 17 18 17 15 15 15 15 16 16 15 13 11 11 9 10 9 9 9 6 6 7 8 8 8 9 7 6 7 6 6 6 6 7 9 10 11 11 12
25 23 21 24 23 22 21 18 17 18 18 18 17 16 15 13 13 13 12 11 11 9 7 6 6 6 7 7 7 8 7 6 7 7 7 7 8 10 10 11 12 12 14
27 25 23 25 27 24 23 21 20 18 17 17 17 17 16 15 13 13 9 9 8 7 7 6 5 5 5 5 5 5 4 5 5 5 6 8 10 12 13 15 17 19 19
27 26 24 23 21 21 24 23 21 21 19 19 19 18 15 13 13 12 9 8 8 7 5 4 5 4 3 3 3 3 4 4 3 3 3 5 6 8 9 8 9 9 8
31 27 24 23 22 22 23 23 22 22 21 22 22 20 16 15 13 11 9 8 7 6 6 5 4 3 2 2 3 3 3 4 4 3 2 3 10 14 14 12 8 9 8
31 28 25 24 24 24 23 22 21 21 21 20 21 17 17 15 13 12 11 9 7 7 6 4 3 2 1 2 2 2 2 3 4 4 3 4 4 3 8 6 3 5 8
32 28 26 26 26 25 24 22 21 19 17 18 17 17 16 14 12 12 10 9 8 7 6 4 3 3 3 3 2 1 0 1 2 4 5 6 7 7 6 5 5 6 8
33 28 27 27 28 26 24 22 19 17 15 15 15 15 14 13 12 11 10 9 9 8 7 6 4 3 3 4 3 3 3 2 2 3 6 8 9 9 9 9 8 8 7
33 31 29 31 30 26 25 22 20 18 15 13 13 13 13 13 12 11 10 10 9 8 7 6 5 5 6 6 6 6 5 3 2 4 6 7 9 10 9 9 9 10 10
35 35 35 33 31 29 26 23 19 16 14 13 13 14 14 13 12 12 11 10 9 7 7 6 5 6 7 9 8 8 6 3 1 4 7 8 10 10 9 8 8 8 8
36 36 36 34 31 28 27 25 22 19 16 14 14 15 15 14 13 12 11 9 7 7 5 5 5 5 8 11 12 10 8 4 2 3 6 9 9 8 8 7 7 7 6
38 39 39 38 36 35 33 31 26 23 18 17 17 17 17 15 14 11 10 9 7 6 5 4 4 6 12 15 13 12 9 6 2 4 7 9 9 9 9 8 8 7 7
44 43 41 39 38 37 33 30 26 23 20 17 18 18 17 15 13 12 10 9 8 7 6 6 7 10 14 17 13 10 8 5 3 3 5 7 9 11 10 11 11 10 9
48 47 44 40 37 35 33 30 27 23 21 22 21 19 17 15 14 12 11 10 8 7 6 7 9 11 14 17 16 9 6 6 9 3 4 6 8 11 14 15 13 13 13
52 47 41 38 36 35 32 32 30 30 27 23 18 18 17 16 14 12 11 10 8 7 6 6 7 9 12 14 17 20 15 8 7 7 5 5 9 10 14 16 15 14 15
56 48 40 37 36 36 34 31 30 26 21 20 21 19 18 17 15 13 11 9 7 6 5 5 6 7 9 11 13 12 9 9 9 6 8 7 5 7 10 14 14 12 13
50 44 37 38 36 35 34 32 29 25 24 23 23 21 19 17 15 14 11 9 8 7 5 4 4 5 7 9 9 9 7 7 8 8 10 10 6 2 5 11 11 11 11
Wind_Direction
180 180 179 178 177 173 172 174 176 176 174 172 171 169 166 159 156 157 156 150 147 141 138 136 124 104 85 69 52 45 43 49 43 35 37 43 45 27 31 35 33 31 24
180 181 178 179 177 176 174 174 177 178 176 173 173 170 165 164 163 164 163 162 157 150 145 138 133 121 103 66 35 28 31 39 30 21 28 78 313 356 60 33 44 37 18
181 183 180 183 179 177 176 177 178 180 177 174 171 169 169 171 173 173 170 165 159 153 151 146 144 107 50 2 340 328 332 354 353 348 1 245 257 342 183 74 29 28 23
179 181 182 185 184 182 181 180 179 179 177 174 173 174 175 176 175 173 168 163 162 169 183 204 225 284 297 303 304 296 289 296 304 308 288 238 243 288 237 174 15 5 13
178 180 185 186 186 186 185 183 181 178 176 177 177 178 177 176 176 176 177 177 185 202 221 237 259 276 305 319 322 303 306 300 274 280 281 258 241 264 279 209 305 346 0
177 178 183 187 187 188 189 186 184 180 180 181 178 180 179 182 184 185 186 196 208 223 227 244 263 313 329 335 327 328 337 333 311 272 275 277 247 261 292 224 281 290 303
173 179 182 185 186 187 188 188 189 185 185 183 181 181 183 189 197 200 200 203 216 225 226 242 277 306 321 324 317 323 329 317 302 282 272 273 256 247 260 230 264 252 260
184 189 190 193 181 183 184 185 185 186 186 189 188 187 188 190 193 205 222 213 207 225 242 252 279 297 308 314 315 316 318 312 302 288 274 270 256 242 250 247 246 255 260
194 198 218 218 188 186 189 195 196 197 193 193 196 195 193 194 194 192 198 212 207 232 249 255 278 294 302 306 303 305 306 297 291 281 269 263 254 234 234 237 254 258 265
200 205 216 201 199 199 198 196 194 195 201 205 209 204 198 199 202 198 197 203 231 232 240 258 278 294 297 299 307 308 305 294 283 279 266 255 254 245 239 240 247 261 258
200 205 209 200 197 199 197 205 205 206 208 209 205 200 197 204 208 213 212 208 217 227 251 271 281 285 292 304 306 301 303 295 277 267 267 265 264 270 266 261 257 258 262
203 205 205 203 206 207 207 202 199 205 210 214 213 209 216 216 214 218 220 220 230 238 245 256 276 279 288 302 303 310 316 311 300 289 283 277 276 276 280 281 282 278 275
200 201 202 212 208 202 198 200 203 205 213 223 224 223 223 222 220 223 226 224 230 235 239 243 244 248 262 279 306 317 317 315 309 317 332 319 297 33 24 2 357 6 354
195 196 199 205 206 205 203 203 206 210 212 220 224 229 228 224 221 221 226 230 225 213 212 207 214 213 226 261 292 306 319 317 326 2 17 27 79 94 88 87 66 47 35
198 195 197 200 203 203 203 208 213 218 220 223 229 223 223 221 221 223 226 224 214 203 193 194 196 212 253 263 263 284 305 324 345 5 26 21 10 35 75 80 53 4 10
198 199 203 204 200 201 201 208 211 213 218 220 222 216 216 221 222 222 221 211 204 194 188 192 202 212 230 241 235 218 204 343 358 6 4 358 2 354 340 337 298 294 348
201 200 205 206 200 199 201 204 210 210 213 216 216 216 216 221 224 220 213 204 195 194 196 200 203 205 213 213 197 170 159 123 62 15 3 1 359 356 359 2 349 348 347
201 201 208 207 206 205 208 208 207 211 222 226 225 223 218 217 217 215 205 197 197 197 201 204 201 196 201 202 187 170 166 153 65 15 11 3 355 354 348 347 350 345 338
206 203 203 207 208 203 203 204 209 220 227 227 221 215 212 208 209 205 204 204 205 201 198 196 192 192 188 185 176 163 155 151 55 15 358 359 359 355 352 358 356 349 348
206 205 202 201 201 199 199 201 211 222 223 219 215 209 207 204 204 205 207 207 207 205 203 202 196 189 189 189 175 167 153 138 90 10 8 9 8 8 10 9 5 5 5
205 204 202 201 202 203 201 204 210 214 212 211 205 203 204 203 202 205 209 211 212 209 207 213 214 190 186 185 186 156 143 136 96 24 15 11 10 13 11 9 6 2 3
205 203 202 204 206 206 209 211 213 206 202 205 205 202 201 204 204 205 209 212 212 209 206 205 203 201 191 186 193 181 163 153 129 57 29 29 29 30 27 25 25 24 19
206 203 201 201 206 208 205 204 198 196 197 200 199 200 200 203 206 207 208 208 211 214 214 212 203 201 208 201 203 206 181 195 172 100 66 55 43 49 45 41 41 41 38
207 201 198 202 206 207 204 200 204 201 198 199 196 195 197 201 204 205 206 211 214 217 213 213 213 208 211 220 217 227 238 215 179 163 119 88 63 47 39 35 32 34 35
203 195 199 203 204 204 203 205 202 200 197 195 192 194 197 199 200 204 204 207 212 217 216 210 210 210 217 221 222 216 198 194 194 173 160 144 90 43 21 22 22 19 24
196 193 200 202 201 205 203 199 200 192 188 188 192 193 194 197 201 201 201 204 212 218 212 211 215 215 215 219 222 218 207 196 186 178 159 156 145 44 354 12 14 17 13